Year,Month,Day,Hour,Minute,Value (Times are PST for temperature in C)
2008,08,14,00,00,15.70
2008,08,14,00,01,15.70
2008,08,14,00,02,15.70
2008,08,14,00,03,15.70
2008,08,14,00,04,15.80
2008,08,14,00,05,15.80
2008,08,14,00,06,15.80
2008,08,14,00,07,15.80
2008,08,14,00,08,15.80
2008,08,14,00,09,15.80
2008,08,14,00,10,15.80
2008,08,14,00,11,15.80
2008,08,14,00,12,15.80
2008,08,14,00,13,15.80
2008,08,14,00,14,15.80
2008,08,14,00,15,15.80
2008,08,14,00,16,15.80
2008,08,14,00,17,15.80
2008,08,14,00,18,15.80
2008,08,14,00,19,15.80
2008,08,14,00,20,15.80
2008,08,14,00,21,15.80
2008,08,14,00,22,15.80
2008,08,14,00,23,15.80
2008,08,14,00,24,15.80
2008,08,14,00,25,15.70
2008,08,14,00,26,15.70
2008,08,14,00,27,15.70
2008,08,14,00,28,15.70
2008,08,14,00,29,15.70
2008,08,14,00,30,15.70
2008,08,14,00,31,15.70
2008,08,14,00,32,15.70
2008,08,14,00,33,15.70
2008,08,14,00,34,15.70
2008,08,14,00,35,15.80
2008,08,14,00,36,15.80
2008,08,14,00,37,15.80
2008,08,14,00,38,15.80
2008,08,14,00,39,15.80
2008,08,14,00,40,15.80
2008,08,14,00,41,15.80
2008,08,14,00,42,15.80
2008,08,14,00,43,15.80
2008,08,14,00,44,15.80
2008,08,14,00,45,15.80
2008,08,14,00,46,15.80
2008,08,14,00,47,15.80
2008,08,14,00,48,15.80
2008,08,14,00,49,15.90
2008,08,14,00,50,15.90
2008,08,14,00,51,15.90
2008,08,14,00,52,15.90
2008,08,14,00,53,16.00
2008,08,14,00,54,16.10
2008,08,14,00,55,16.10
2008,08,14,00,56,16.10
2008,08,14,00,57,16.10
2008,08,14,00,58,16.10
2008,08,14,00,59,16.10
2008,08,14,01,00,16.10
2008,08,14,01,01,16.10
2008,08,14,01,02,16.10
2008,08,14,01,03,16.20
2008,08,14,01,04,16.20
2008,08,14,01,05,16.20
2008,08,14,01,06,16.20
2008,08,14,01,07,16.20
2008,08,14,01,08,16.20
2008,08,14,01,09,16.20
2008,08,14,01,10,16.20
2008,08,14,01,11,16.20
2008,08,14,01,12,16.20
2008,08,14,01,13,16.20
2008,08,14,01,14,16.20
2008,08,14,01,15,16.20
2008,08,14,01,16,16.30
2008,08,14,01,17,16.30
2008,08,14,01,18,16.30
2008,08,14,01,19,16.30
2008,08,14,01,20,16.40
2008,08,14,01,21,16.40
2008,08,14,01,22,16.40
2008,08,14,01,23,16.30
2008,08,14,01,24,16.30
2008,08,14,01,25,16.30
2008,08,14,01,26,16.30
2008,08,14,01,27,16.30
2008,08,14,01,28,16.30
2008,08,14,01,29,16.30
2008,08,14,01,30,16.20
2008,08,14,01,31,16.20
2008,08,14,01,32,16.20
2008,08,14,01,33,16.20
2008,08,14,01,34,16.20
2008,08,14,01,35,16.10
2008,08,14,01,36,16.10
2008,08,14,01,37,16.10
2008,08,14,01,38,16.10
2008,08,14,01,39,16.10
2008,08,14,01,40,16.10
2008,08,14,01,41,16.10
2008,08,14,01,42,16.10
2008,08,14,01,43,16.10
2008,08,14,01,44,16.10
2008,08,14,01,45,16.10
2008,08,14,01,46,16.10
2008,08,14,01,47,16.10
2008,08,14,01,48,16.20
2008,08,14,01,49,16.20
2008,08,14,01,50,16.20
2008,08,14,01,51,16.20
2008,08,14,01,52,16.20
2008,08,14,01,53,16.20
2008,08,14,01,54,16.20
2008,08,14,01,55,16.20
2008,08,14,01,56,16.20
2008,08,14,01,57,16.30
2008,08,14,01,58,16.30
2008,08,14,01,59,16.30
2008,08,14,02,00,16.30
2008,08,14,02,01,16.30
2008,08,14,02,02,16.30
2008,08,14,02,03,16.30
2008,08,14,02,04,16.30
2008,08,14,02,05,16.30
2008,08,14,02,06,16.40
2008,08,14,02,07,16.40
2008,08,14,02,08,16.40
2008,08,14,02,09,16.40
2008,08,14,02,10,16.40
2008,08,14,02,11,16.40
2008,08,14,02,12,16.40
2008,08,14,02,13,16.40
2008,08,14,02,14,16.40
2008,08,14,02,15,16.40
2008,08,14,02,16,16.30
2008,08,14,02,17,16.30
2008,08,14,02,18,16.30
2008,08,14,02,19,16.30
2008,08,14,02,20,16.30
2008,08,14,02,21,16.30
2008,08,14,02,22,16.30
2008,08,14,02,23,16.30
2008,08,14,02,24,16.30
2008,08,14,02,25,16.30
2008,08,14,02,26,16.30
2008,08,14,02,27,16.30
2008,08,14,02,28,16.20
2008,08,14,02,29,16.20
2008,08,14,02,30,16.20
2008,08,14,02,31,16.20
2008,08,14,02,32,16.20
2008,08,14,02,33,16.20
2008,08,14,02,34,16.20
2008,08,14,02,35,16.20
2008,08,14,02,36,16.20
2008,08,14,02,37,16.10
2008,08,14,02,38,16.10
2008,08,14,02,39,16.10
2008,08,14,02,40,16.10
2008,08,14,02,41,16.10
2008,08,14,02,42,16.10
2008,08,14,02,43,16.10
2008,08,14,02,44,16.10
2008,08,14,02,45,16.10
2008,08,14,02,46,16.10
2008,08,14,02,47,16.10
2008,08,14,02,48,16.10
2008,08,14,02,49,16.10
2008,08,14,02,50,16.10
2008,08,14,02,51,16.10
2008,08,14,02,52,16.10
2008,08,14,02,53,16.10
2008,08,14,02,54,16.10
2008,08,14,02,55,16.10
2008,08,14,02,56,16.10
2008,08,14,02,57,16.10
2008,08,14,02,58,16.10
2008,08,14,02,59,16.10
2008,08,14,03,00,16.10
2008,08,14,03,01,16.10
2008,08,14,03,02,16.10
2008,08,14,03,03,16.10
2008,08,14,03,04,16.10
2008,08,14,03,05,16.10
2008,08,14,03,06,16.10
2008,08,14,03,07,16.10
2008,08,14,03,08,16.10
2008,08,14,03,09,15.90
2008,08,14,03,10,15.90
2008,08,14,03,11,15.90
2008,08,14,03,12,15.90
2008,08,14,03,13,15.90
2008,08,14,03,14,15.90
2008,08,14,03,15,15.90
2008,08,14,03,16,15.90
2008,08,14,03,17,15.80
2008,08,14,03,18,15.80
2008,08,14,03,19,15.80
2008,08,14,03,20,15.80
2008,08,14,03,21,15.80
2008,08,14,03,22,15.80
2008,08,14,03,23,15.80
2008,08,14,03,24,15.80
2008,08,14,03,25,15.80
2008,08,14,03,26,15.80
2008,08,14,03,27,15.80
2008,08,14,03,28,15.80
2008,08,14,03,29,15.70
2008,08,14,03,30,15.70
2008,08,14,03,31,15.70
2008,08,14,03,32,15.70
2008,08,14,03,33,15.70
2008,08,14,03,34,15.70
2008,08,14,03,35,15.70
2008,08,14,03,36,15.70
2008,08,14,03,37,15.70
2008,08,14,03,38,15.60
2008,08,14,03,39,15.60
2008,08,14,03,40,15.60
2008,08,14,03,41,15.60
2008,08,14,03,42,15.60
2008,08,14,03,43,15.50
2008,08,14,03,44,15.50
2008,08,14,03,45,15.50
2008,08,14,03,46,15.50
2008,08,14,03,47,15.40
2008,08,14,03,48,15.40
2008,08,14,03,49,15.40
2008,08,14,03,50,15.40
2008,08,14,03,51,15.40
2008,08,14,03,52,15.40
2008,08,14,03,53,15.40
2008,08,14,03,54,15.40
2008,08,14,03,55,15.40
2008,08,14,03,56,15.40
2008,08,14,03,57,15.40
2008,08,14,03,58,15.40
2008,08,14,03,59,15.40
2008,08,14,04,00,15.30
2008,08,14,04,01,15.30
2008,08,14,04,02,15.30
2008,08,14,04,03,15.30
2008,08,14,04,04,15.30
2008,08,14,04,05,15.30
2008,08,14,04,06,15.30
2008,08,14,04,07,15.30
2008,08,14,04,08,15.40
2008,08,14,04,09,15.40
2008,08,14,04,10,15.40
2008,08,14,04,11,15.40
2008,08,14,04,12,15.30
2008,08,14,04,13,15.30
2008,08,14,04,14,15.30
2008,08,14,04,15,15.30
2008,08,14,04,16,15.30
2008,08,14,04,17,15.30
2008,08,14,04,18,15.30
2008,08,14,04,19,15.30
2008,08,14,04,20,15.30
2008,08,14,04,21,15.30
2008,08,14,04,22,15.30
2008,08,14,04,23,15.30
2008,08,14,04,24,15.30
2008,08,14,04,25,15.30
2008,08,14,04,26,15.30
2008,08,14,04,27,15.30
2008,08,14,04,28,15.30
2008,08,14,04,29,15.30
2008,08,14,04,30,15.30
2008,08,14,04,31,15.30
2008,08,14,04,32,15.30
2008,08,14,04,33,15.30
2008,08,14,04,34,15.30
2008,08,14,04,35,15.30
2008,08,14,04,36,15.30
2008,08,14,04,37,15.30
2008,08,14,04,38,15.30
2008,08,14,04,39,15.30
2008,08,14,04,40,15.30
2008,08,14,04,41,15.30
2008,08,14,04,42,15.30
2008,08,14,04,43,15.30
2008,08,14,04,44,15.30
2008,08,14,04,45,15.30
2008,08,14,04,46,15.40
2008,08,14,04,47,15.40
2008,08,14,04,48,15.40
2008,08,14,04,49,15.40
2008,08,14,04,50,15.40
2008,08,14,04,51,15.40
2008,08,14,04,52,15.40
2008,08,14,04,53,15.50
2008,08,14,04,54,15.50
2008,08,14,04,55,15.50
2008,08,14,04,56,15.50
2008,08,14,04,57,15.50
2008,08,14,04,58,15.50
2008,08,14,04,59,15.50
2008,08,14,05,00,15.50
2008,08,14,05,01,15.50
2008,08,14,05,02,15.50
2008,08,14,05,03,15.50
2008,08,14,05,04,15.50
2008,08,14,05,05,15.50
2008,08,14,05,06,15.50
2008,08,14,05,07,15.50
2008,08,14,05,08,15.50
2008,08,14,05,09,15.50
2008,08,14,05,10,15.50
2008,08,14,05,11,15.50
2008,08,14,05,12,15.50
2008,08,14,05,13,15.50
2008,08,14,05,14,15.60
2008,08,14,05,15,15.60
2008,08,14,05,16,15.60
2008,08,14,05,17,15.60
2008,08,14,05,18,15.60
2008,08,14,05,19,15.60
2008,08,14,05,20,15.70
2008,08,14,05,21,15.70
2008,08,14,05,22,15.70
2008,08,14,05,23,15.80
2008,08,14,05,24,15.80
2008,08,14,05,25,15.80
2008,08,14,05,26,15.80
2008,08,14,05,27,15.80
2008,08,14,05,28,15.80
2008,08,14,05,29,15.80
2008,08,14,05,30,15.80
2008,08,14,05,31,15.80
2008,08,14,05,32,15.80
2008,08,14,05,33,15.80
2008,08,14,05,34,15.80
2008,08,14,05,35,15.80
2008,08,14,05,36,15.80
2008,08,14,05,37,15.80
2008,08,14,05,38,15.80
2008,08,14,05,39,15.80
2008,08,14,05,40,15.80
2008,08,14,05,41,15.80
2008,08,14,05,42,15.80
2008,08,14,05,43,15.80
2008,08,14,05,44,15.80
2008,08,14,05,45,15.80
2008,08,14,05,46,15.70
2008,08,14,05,47,15.70
2008,08,14,05,48,15.70
2008,08,14,05,49,15.70
2008,08,14,05,50,15.70
2008,08,14,05,51,15.60
2008,08,14,05,52,15.60
2008,08,14,05,53,15.60
2008,08,14,05,54,15.60
2008,08,14,05,55,15.60
2008,08,14,05,56,15.60
2008,08,14,05,57,15.60
2008,08,14,05,58,15.60
2008,08,14,05,59,15.50
2008,08,14,06,00,15.50
2008,08,14,06,01,15.50
2008,08,14,06,02,15.50
2008,08,14,06,03,15.50
2008,08,14,06,04,15.50
2008,08,14,06,05,15.50
2008,08,14,06,06,15.50
2008,08,14,06,07,15.50
2008,08,14,06,08,15.50
2008,08,14,06,09,15.50
2008,08,14,06,10,15.50
2008,08,14,06,11,15.50
2008,08,14,06,12,15.50
2008,08,14,06,13,15.50
2008,08,14,06,14,15.50
2008,08,14,06,15,15.50
2008,08,14,06,16,15.50
2008,08,14,06,17,15.50
2008,08,14,06,18,15.50
2008,08,14,06,19,15.50
2008,08,14,06,20,15.50
2008,08,14,06,21,15.50
2008,08,14,06,22,15.50
2008,08,14,06,23,15.50
2008,08,14,06,24,15.50
2008,08,14,06,25,15.60
2008,08,14,06,26,15.60
2008,08,14,06,27,15.60
2008,08,14,06,28,15.60
2008,08,14,06,29,15.60
2008,08,14,06,30,15.70
2008,08,14,06,31,15.70
2008,08,14,06,32,15.80
2008,08,14,06,33,15.80
2008,08,14,06,34,15.80
2008,08,14,06,35,15.90
2008,08,14,06,36,16.00
2008,08,14,06,37,16.10
2008,08,14,06,38,16.10
2008,08,14,06,39,16.10
2008,08,14,06,40,16.20
2008,08,14,06,41,16.20
2008,08,14,06,42,16.30
2008,08,14,06,43,16.30
2008,08,14,06,44,16.30
2008,08,14,06,45,16.40
2008,08,14,06,46,16.40
2008,08,14,06,47,16.40
2008,08,14,06,48,16.50
2008,08,14,06,49,16.60
2008,08,14,06,50,16.60
2008,08,14,06,51,16.70
2008,08,14,06,52,16.70
2008,08,14,06,53,16.70
2008,08,14,06,54,16.70
2008,08,14,06,55,16.80
2008,08,14,06,56,16.80
2008,08,14,06,57,16.80
2008,08,14,06,58,16.90
2008,08,14,06,59,16.90
2008,08,14,07,00,16.90
2008,08,14,07,01,17.00
2008,08,14,07,02,17.00
2008,08,14,07,03,17.00
2008,08,14,07,04,17.10
2008,08,14,07,05,17.10
2008,08,14,07,06,17.20
2008,08,14,07,07,17.20
2008,08,14,07,08,17.30
2008,08,14,07,09,17.30
2008,08,14,07,10,17.30
2008,08,14,07,11,17.30
2008,08,14,07,12,17.40
2008,08,14,07,13,17.40
2008,08,14,07,14,17.40
2008,08,14,07,15,17.50
2008,08,14,07,16,17.50
2008,08,14,07,17,17.50
2008,08,14,07,18,17.50
2008,08,14,07,19,17.60
2008,08,14,07,20,17.60
2008,08,14,07,21,17.60
2008,08,14,07,22,17.60
2008,08,14,07,23,17.60
2008,08,14,07,24,17.60
2008,08,14,07,25,17.60
2008,08,14,07,26,17.70
2008,08,14,07,27,17.70
2008,08,14,07,28,17.70
2008,08,14,07,29,17.70
2008,08,14,07,30,17.70
2008,08,14,07,31,17.70
2008,08,14,07,32,17.60
2008,08,14,07,33,17.50
2008,08,14,07,34,17.50
2008,08,14,07,35,17.50
2008,08,14,07,36,17.40
2008,08,14,07,37,17.40
2008,08,14,07,38,17.40
2008,08,14,07,39,17.40
2008,08,14,07,40,17.50
2008,08,14,07,41,17.50
2008,08,14,07,42,17.60
2008,08,14,07,43,17.70
2008,08,14,07,44,17.80
2008,08,14,07,45,17.90
2008,08,14,07,46,18.10
2008,08,14,07,47,18.20
2008,08,14,07,48,18.30
2008,08,14,07,49,18.40
2008,08,14,07,50,18.50
2008,08,14,07,51,18.60
2008,08,14,07,52,18.70
2008,08,14,07,53,18.80
2008,08,14,07,54,18.80
2008,08,14,07,55,18.90
2008,08,14,07,56,18.90
2008,08,14,07,57,18.90
2008,08,14,07,58,19.00
2008,08,14,07,59,19.10
2008,08,14,08,00,19.10
2008,08,14,08,01,19.10
2008,08,14,08,02,19.10
2008,08,14,08,03,19.20
2008,08,14,08,04,19.20
2008,08,14,08,05,19.20
2008,08,14,08,06,19.30
2008,08,14,08,07,19.30
2008,08,14,08,08,19.30
2008,08,14,08,09,19.40
2008,08,14,08,10,19.40
2008,08,14,08,11,19.50
2008,08,14,08,12,19.50
2008,08,14,08,13,19.50
2008,08,14,08,14,19.60
2008,08,14,08,15,19.60
2008,08,14,08,16,19.60
2008,08,14,08,17,19.60
2008,08,14,08,18,19.70
2008,08,14,08,19,19.70
2008,08,14,08,20,19.70
2008,08,14,08,21,19.80
2008,08,14,08,22,19.80
2008,08,14,08,23,19.80
2008,08,14,08,24,19.80
2008,08,14,08,25,19.90
2008,08,14,08,26,19.90
2008,08,14,08,27,19.90
2008,08,14,08,28,19.90
2008,08,14,08,29,19.90
2008,08,14,08,30,19.90
2008,08,14,08,31,20.00
2008,08,14,08,32,20.10
2008,08,14,08,33,20.20
2008,08,14,08,34,20.20
2008,08,14,08,35,20.20
2008,08,14,08,36,20.30
2008,08,14,08,37,20.30
2008,08,14,08,38,20.30
2008,08,14,08,39,20.40
2008,08,14,08,40,20.40
2008,08,14,08,41,20.50
2008,08,14,08,42,20.50
2008,08,14,08,43,20.50
2008,08,14,08,44,20.50
2008,08,14,08,45,20.60
2008,08,14,08,46,20.60
2008,08,14,08,47,20.60
2008,08,14,08,48,20.70
2008,08,14,08,49,20.70
2008,08,14,08,50,20.80
2008,08,14,08,51,20.80
2008,08,14,08,52,20.80
2008,08,14,08,53,20.80
2008,08,14,08,54,20.90
2008,08,14,08,55,20.90
2008,08,14,08,56,20.90
2008,08,14,08,57,20.90
2008,08,14,08,58,20.90
2008,08,14,08,59,21.00
2008,08,14,09,00,21.00
2008,08,14,09,01,21.10
2008,08,14,09,02,21.10
2008,08,14,09,03,21.20
2008,08,14,09,04,21.20
2008,08,14,09,05,21.20
2008,08,14,09,06,21.20
2008,08,14,09,07,21.20
2008,08,14,09,08,21.30
2008,08,14,09,09,21.30
2008,08,14,09,10,21.30
2008,08,14,09,11,21.30
2008,08,14,09,12,21.30
2008,08,14,09,13,21.30
2008,08,14,09,14,21.30
2008,08,14,09,15,21.30
2008,08,14,09,16,21.30
2008,08,14,09,17,21.30
2008,08,14,09,18,21.30
2008,08,14,09,19,21.30
2008,08,14,09,20,21.30
2008,08,14,09,21,21.40
2008,08,14,09,22,21.40
2008,08,14,09,23,21.40
2008,08,14,09,24,21.50
2008,08,14,09,25,21.60
2008,08,14,09,26,21.60
2008,08,14,09,27,21.60
2008,08,14,09,28,21.70
2008,08,14,09,29,21.70
2008,08,14,09,30,21.70
2008,08,14,09,31,21.70
2008,08,14,09,32,21.70
2008,08,14,09,33,21.70
2008,08,14,09,34,21.80
2008,08,14,09,35,21.80
2008,08,14,09,36,21.90
2008,08,14,09,37,21.90
2008,08,14,09,38,21.90
2008,08,14,09,39,21.80
2008,08,14,09,40,21.90
2008,08,14,09,41,21.90
2008,08,14,09,42,22.00
2008,08,14,09,43,22.00
2008,08,14,09,44,22.00
2008,08,14,09,45,22.00
2008,08,14,09,46,22.10
2008,08,14,09,47,22.10
2008,08,14,09,48,22.20
2008,08,14,09,49,22.20
2008,08,14,09,50,22.30
2008,08,14,09,51,22.30
2008,08,14,09,52,22.30
2008,08,14,09,53,22.40
2008,08,14,09,54,22.40
2008,08,14,09,55,22.50
2008,08,14,09,56,22.50
2008,08,14,09,57,22.50
2008,08,14,09,58,22.50
2008,08,14,09,59,22.50
2008,08,14,10,00,22.50
2008,08,14,10,01,22.60
2008,08,14,10,02,22.60
2008,08,14,10,03,22.60
2008,08,14,10,04,22.60
2008,08,14,10,05,22.60
2008,08,14,10,06,22.60
2008,08,14,10,07,22.60
2008,08,14,10,08,22.60
2008,08,14,10,09,22.60
2008,08,14,10,10,22.60
2008,08,14,10,11,22.60
2008,08,14,10,12,22.60
2008,08,14,10,13,22.60
2008,08,14,10,14,22.60
2008,08,14,10,15,22.60
2008,08,14,10,16,22.60
2008,08,14,10,17,22.60
2008,08,14,10,18,22.60
2008,08,14,10,19,22.60
2008,08,14,10,20,22.70
2008,08,14,10,21,22.70
2008,08,14,10,22,22.70
2008,08,14,10,23,22.70
2008,08,14,10,24,22.80
2008,08,14,10,25,22.90
2008,08,14,10,26,22.90
2008,08,14,10,27,22.90
2008,08,14,10,28,22.90
2008,08,14,10,29,22.90
2008,08,14,10,30,22.90
2008,08,14,10,31,22.90
2008,08,14,10,32,22.90
2008,08,14,10,33,23.00
2008,08,14,10,34,23.10
2008,08,14,10,35,23.10
2008,08,14,10,36,23.10
2008,08,14,10,37,23.10
2008,08,14,10,38,23.10
2008,08,14,10,39,23.20
2008,08,14,10,40,23.20
2008,08,14,10,41,23.30
2008,08,14,10,42,23.30
2008,08,14,10,43,23.30
2008,08,14,10,44,23.40
2008,08,14,10,45,23.40
2008,08,14,10,46,23.50
2008,08,14,10,47,23.60
2008,08,14,10,48,23.70
2008,08,14,10,49,23.70
2008,08,14,10,50,23.70
2008,08,14,10,51,23.70
2008,08,14,10,52,23.70
2008,08,14,10,53,23.70
2008,08,14,10,54,23.70
2008,08,14,10,55,23.70
2008,08,14,10,56,23.70
2008,08,14,10,57,23.70
2008,08,14,10,58,23.70
2008,08,14,10,59,23.70
2008,08,14,11,00,23.70
2008,08,14,11,01,23.70
2008,08,14,11,02,23.70
2008,08,14,11,03,23.70
2008,08,14,11,04,23.70
2008,08,14,11,05,23.70
2008,08,14,11,06,23.70
2008,08,14,11,07,23.70
2008,08,14,11,08,23.70
2008,08,14,11,09,23.80
2008,08,14,11,10,23.90
2008,08,14,11,11,23.90
2008,08,14,11,12,24.00
2008,08,14,11,13,24.10
2008,08,14,11,14,24.10
2008,08,14,11,15,24.10
2008,08,14,11,16,24.10
2008,08,14,11,17,24.10
2008,08,14,11,18,24.20
2008,08,14,11,19,24.20
2008,08,14,11,20,24.30
2008,08,14,11,21,24.30
2008,08,14,11,22,24.40
2008,08,14,11,23,24.40
2008,08,14,11,24,24.40
2008,08,14,11,25,24.40
2008,08,14,11,26,24.40
2008,08,14,11,27,24.50
2008,08,14,11,28,24.60
2008,08,14,11,29,24.70
2008,08,14,11,30,24.70
2008,08,14,11,31,24.70
2008,08,14,11,32,24.60
2008,08,14,11,33,24.60
2008,08,14,11,34,24.50
2008,08,14,11,35,24.60
2008,08,14,11,36,24.60
2008,08,14,11,37,24.60
2008,08,14,11,38,24.60
2008,08,14,11,39,24.60
2008,08,14,11,40,24.70
2008,08,14,11,41,24.70
2008,08,14,11,42,24.80
2008,08,14,11,43,24.80
2008,08,14,11,44,24.80
2008,08,14,11,45,24.80
2008,08,14,11,46,24.70
2008,08,14,11,47,24.70
2008,08,14,11,48,24.60
2008,08,14,11,49,24.50
2008,08,14,11,50,24.50
2008,08,14,11,51,24.50
2008,08,14,11,52,24.60
2008,08,14,11,53,24.70
2008,08,14,11,54,24.80
2008,08,14,11,55,24.80
2008,08,14,11,56,24.80
2008,08,14,11,57,24.70
2008,08,14,11,58,24.70
2008,08,14,11,59,24.70
2008,08,14,12,00,24.60
2008,08,14,12,01,24.50
2008,08,14,12,02,24.50
2008,08,14,12,03,24.50
2008,08,14,12,04,24.50
2008,08,14,12,05,24.50
2008,08,14,12,06,24.40
2008,08,14,12,07,24.40
2008,08,14,12,08,24.50
2008,08,14,12,09,24.50
2008,08,14,12,10,24.60
2008,08,14,12,11,24.70
2008,08,14,12,12,24.70
2008,08,14,12,13,24.80
2008,08,14,12,14,24.80
2008,08,14,12,15,24.80
2008,08,14,12,16,24.90
2008,08,14,12,17,24.90
2008,08,14,12,18,25.00
2008,08,14,12,19,25.10
2008,08,14,12,20,25.10
2008,08,14,12,21,25.10
2008,08,14,12,22,25.10
2008,08,14,12,23,25.20
2008,08,14,12,24,25.20
2008,08,14,12,25,25.00
2008,08,14,12,26,24.90
2008,08,14,12,27,24.80
2008,08,14,12,28,24.70
2008,08,14,12,29,24.60
2008,08,14,12,30,24.60
2008,08,14,12,31,24.70
2008,08,14,12,32,24.80
2008,08,14,12,33,24.90
2008,08,14,12,34,25.00
2008,08,14,12,35,25.00
2008,08,14,12,36,24.90
2008,08,14,12,37,24.90
2008,08,14,12,38,24.90
2008,08,14,12,39,24.90
2008,08,14,12,40,25.00
2008,08,14,12,41,25.00
2008,08,14,12,42,25.10
2008,08,14,12,43,25.10
2008,08,14,12,44,25.20
2008,08,14,12,45,25.20
2008,08,14,12,46,25.30
2008,08,14,12,47,25.30
2008,08,14,12,48,25.30
2008,08,14,12,49,25.30
2008,08,14,12,50,25.40
2008,08,14,12,51,25.40
2008,08,14,12,52,25.50
2008,08,14,12,53,25.50
2008,08,14,12,54,25.60
2008,08,14,12,55,25.60
2008,08,14,12,56,25.60
2008,08,14,12,57,25.70
2008,08,14,12,58,25.70
2008,08,14,12,59,25.80
2008,08,14,13,00,25.70
2008,08,14,13,01,25.70
2008,08,14,13,02,25.80
2008,08,14,13,03,25.70
2008,08,14,13,04,25.70
2008,08,14,13,05,25.70
2008,08,14,13,06,25.70
2008,08,14,13,07,25.70
2008,08,14,13,08,25.60
2008,08,14,13,09,25.70
2008,08,14,13,10,25.70
2008,08,14,13,11,25.70
2008,08,14,13,12,25.70
2008,08,14,13,13,25.70
2008,08,14,13,14,25.70
2008,08,14,13,15,25.80
2008,08,14,13,16,25.90
2008,08,14,13,17,25.90
2008,08,14,13,18,25.90
2008,08,14,13,19,26.00
2008,08,14,13,20,25.90
2008,08,14,13,21,25.90
2008,08,14,13,22,26.00
2008,08,14,13,23,26.10
2008,08,14,13,24,26.10
2008,08,14,13,25,26.10
2008,08,14,13,26,26.10
2008,08,14,13,27,26.20
2008,08,14,13,28,26.20
2008,08,14,13,29,26.30
2008,08,14,13,30,26.40
2008,08,14,13,31,26.40
2008,08,14,13,32,26.50
2008,08,14,13,33,26.60
2008,08,14,13,34,26.60
2008,08,14,13,35,26.60
2008,08,14,13,36,26.70
2008,08,14,13,37,26.70
2008,08,14,13,38,26.70
2008,08,14,13,39,26.80
2008,08,14,13,40,26.90
2008,08,14,13,41,27.00
2008,08,14,13,42,27.00
2008,08,14,13,43,26.90
2008,08,14,13,44,26.80
2008,08,14,13,45,26.70
2008,08,14,13,46,26.70
2008,08,14,13,47,26.70
2008,08,14,13,48,26.60
2008,08,14,13,49,26.60
2008,08,14,13,50,26.60
2008,08,14,13,51,26.50
2008,08,14,13,52,26.40
2008,08,14,13,53,26.40
2008,08,14,13,54,26.40
2008,08,14,13,55,26.50
2008,08,14,13,56,26.60
2008,08,14,13,57,26.80
2008,08,14,13,58,26.80
2008,08,14,13,59,26.80
2008,08,14,14,00,26.80
2008,08,14,14,01,26.80
2008,08,14,14,02,26.70
2008,08,14,14,03,26.70
2008,08,14,14,04,26.80
2008,08,14,14,05,26.90
2008,08,14,14,06,26.90
2008,08,14,14,07,26.90
2008,08,14,14,08,26.90
2008,08,14,14,09,27.00
2008,08,14,14,10,27.10
2008,08,14,14,11,27.10
2008,08,14,14,12,27.10
2008,08,14,14,13,27.20
2008,08,14,14,14,27.20
2008,08,14,14,15,27.30
2008,08,14,14,16,27.30
2008,08,14,14,17,27.30
2008,08,14,14,18,27.30
2008,08,14,14,19,27.30
2008,08,14,14,20,27.30
2008,08,14,14,21,27.30
2008,08,14,14,22,27.30
2008,08,14,14,23,27.30
2008,08,14,14,24,27.30
2008,08,14,14,25,27.30
2008,08,14,14,26,27.30
2008,08,14,14,27,27.30
2008,08,14,14,28,27.30
2008,08,14,14,29,27.30
2008,08,14,14,30,27.30
2008,08,14,14,31,27.20
2008,08,14,14,32,27.20
2008,08,14,14,33,27.30
2008,08,14,14,34,27.30
2008,08,14,14,35,27.40
2008,08,14,14,36,27.30
2008,08,14,14,37,27.40
2008,08,14,14,38,27.40
2008,08,14,14,39,27.40
2008,08,14,14,40,27.50
2008,08,14,14,41,27.60
2008,08,14,14,42,27.70
2008,08,14,14,43,27.80
2008,08,14,14,44,27.90
2008,08,14,14,45,27.90
2008,08,14,14,46,27.90
2008,08,14,14,47,27.90
2008,08,14,14,48,27.80
2008,08,14,14,49,27.90
2008,08,14,14,50,28.00
2008,08,14,14,51,28.00
2008,08,14,14,52,28.00
2008,08,14,14,53,27.90
2008,08,14,14,54,27.80
2008,08,14,14,55,27.80
2008,08,14,14,56,27.90
2008,08,14,14,57,28.10
2008,08,14,14,58,28.10
2008,08,14,14,59,28.10
2008,08,14,15,00,28.00
2008,08,14,15,01,27.90
2008,08,14,15,02,27.90
2008,08,14,15,03,27.90
2008,08,14,15,04,27.90
2008,08,14,15,05,27.90
2008,08,14,15,06,28.00
2008,08,14,15,07,28.00
2008,08,14,15,08,28.00
2008,08,14,15,09,28.00
2008,08,14,15,10,28.10
2008,08,14,15,11,28.30
2008,08,14,15,12,28.30
2008,08,14,15,13,28.30
2008,08,14,15,14,28.40
2008,08,14,15,15,28.40
2008,08,14,15,16,28.40
2008,08,14,15,17,28.40
2008,08,14,15,18,28.50
2008,08,14,15,19,28.50
2008,08,14,15,20,28.40
2008,08,14,15,21,28.40
2008,08,14,15,22,28.40
2008,08,14,15,23,28.40
2008,08,14,15,24,28.40
2008,08,14,15,25,28.40
2008,08,14,15,26,28.40
2008,08,14,15,27,28.40
2008,08,14,15,28,28.50
2008,08,14,15,29,28.60
2008,08,14,15,30,28.60
2008,08,14,15,31,28.70
2008,08,14,15,32,28.70
2008,08,14,15,33,28.80
2008,08,14,15,34,28.80
2008,08,14,15,35,28.80
2008,08,14,15,36,28.70
2008,08,14,15,37,28.60
2008,08,14,15,38,28.50
2008,08,14,15,39,28.40
2008,08,14,15,40,28.50
2008,08,14,15,41,28.60
2008,08,14,15,42,28.60
2008,08,14,15,43,28.70
2008,08,14,15,44,28.70
2008,08,14,15,45,28.70
2008,08,14,15,46,28.70
2008,08,14,15,47,28.60
2008,08,14,15,48,28.60
2008,08,14,15,49,28.50
2008,08,14,15,50,28.40
2008,08,14,15,51,28.40
2008,08,14,15,52,28.40
2008,08,14,15,53,28.60
2008,08,14,15,54,28.60
2008,08,14,15,55,28.70
2008,08,14,15,56,28.90
2008,08,14,15,57,28.90
2008,08,14,15,58,28.90
2008,08,14,15,59,29.00
2008,08,14,16,00,28.90
2008,08,14,16,01,28.80
2008,08,14,16,02,28.70
2008,08,14,16,03,28.40
2008,08,14,16,04,28.20
2008,08,14,16,05,28.10
2008,08,14,16,06,28.00
2008,08,14,16,07,27.80
2008,08,14,16,08,27.40
2008,08,14,16,09,26.80
2008,08,14,16,10,26.30
2008,08,14,16,11,26.00
2008,08,14,16,12,25.90
2008,08,14,16,13,25.80
2008,08,14,16,14,25.60
2008,08,14,16,15,25.40
2008,08,14,16,16,24.90
2008,08,14,16,17,24.50
2008,08,14,16,18,24.20
2008,08,14,16,19,24.00
2008,08,14,16,20,23.70
2008,08,14,16,21,23.40
2008,08,14,16,22,23.20
2008,08,14,16,23,23.10
2008,08,14,16,24,23.10
2008,08,14,16,25,23.10
2008,08,14,16,26,22.90
2008,08,14,16,27,22.80
2008,08,14,16,28,22.70
2008,08,14,16,29,22.70
2008,08,14,16,30,22.60
2008,08,14,16,31,22.60
2008,08,14,16,32,22.60
2008,08,14,16,33,22.60
2008,08,14,16,34,22.70
2008,08,14,16,35,22.80
2008,08,14,16,36,22.80
2008,08,14,16,37,22.90
2008,08,14,16,38,22.90
2008,08,14,16,39,22.90
2008,08,14,16,40,22.80
2008,08,14,16,41,22.80
2008,08,14,16,42,22.80
2008,08,14,16,43,22.80
2008,08,14,16,44,22.80
2008,08,14,16,45,22.70
2008,08,14,16,46,22.70
2008,08,14,16,47,22.80
2008,08,14,16,48,22.80
2008,08,14,16,49,22.90
2008,08,14,16,50,22.90
2008,08,14,16,51,22.90
2008,08,14,16,52,22.90
2008,08,14,16,53,22.90
2008,08,14,16,54,22.90
2008,08,14,16,55,22.90
2008,08,14,16,56,22.90
2008,08,14,16,57,22.90
2008,08,14,16,58,22.90
2008,08,14,16,59,22.90
2008,08,14,17,00,22.90
2008,08,14,17,01,22.90
2008,08,14,17,02,22.90
2008,08,14,17,03,23.10
2008,08,14,17,04,23.20
2008,08,14,17,05,23.20
2008,08,14,17,06,23.30
2008,08,14,17,07,23.30
2008,08,14,17,08,23.30
2008,08,14,17,09,23.30
2008,08,14,17,10,23.30
2008,08,14,17,11,23.30
2008,08,14,17,12,23.40
2008,08,14,17,13,23.30
2008,08,14,17,14,23.30
2008,08,14,17,15,23.30
2008,08,14,17,16,23.30
2008,08,14,17,17,23.30
2008,08,14,17,18,23.30
2008,08,14,17,19,23.40